Temperature
10 10 10 9 9 9 8 9 9 10 11 11 11 11 11 12 11 11 10 9 8 7 7 6 6 6 6 6 6 6 6 6 6 6 5 5 5 5 5 5 5 5 5 5
9 10 10 9 9 9 9 9 10 10 10 11 12 12 12 11 11 10 10 9 8 7 6 6 5 5 5 5 5 5 5 5 5 5 5 5 5 4 4 4 4 4 4 4
8 9 9 8 9 9 9 10 10 9 10 11 11 11 11 11 11 10 9 8 7 6 6 5 5 5 4 4 4 4 4 4 4 4 4 4 4 4 4 3 3 3 3 3
8 8 7 9 10 11 10 10 10 10 11 11 11 11 11 10 10 9 9 8 7 6 5 5 4 4 4 3 3 3 4 3 3 3 3 3 3 3 3 3 2 2 2 2
7 8 8 9 9 10 9 9 10 10 10 11 11 10 9 9 9 8 8 7 6 6 5 4 4 4 3 3 3 3 3 3 3 3 3 2 2 2 2 1 1 1 1 0
7 7 8 9 9 10 10 9 10 10 10 10 9 8 8 8 8 7 7 6 6 5 4 4 3 3 3 3 3 3 2 2 2 2 2 2 1 1 1 1 0 0 0 -0
7 7 8 9 9 9 8 8 9 9 9 9 8 8 8 7 7 6 6 5 5 4 4 3 3 2 2 2 2 2 2 2 1 1 1 1 1 0 0 -0 -0 -0 -0 -1
7 7 7 9 9 8 8 9 9 9 9 8 8 7 7 6 6 5 5 5 4 4 3 3 3 2 2 2 2 2 1 1 1 1 1 0 0 -0 -0 -0 -0 -1 -1 -1
8 8 8 9 9 8 8 8 8 8 8 7 7 7 6 6 5 5 5 4 4 3 3 3 2 2 2 2 1 1 1 1 1 0 0 -0 -0 -0 -0 -1 -1 -1 -1 -2
8 9 9 9 8 8 8 7 7 7 7 7 6 6 6 5 5 5 4 4 3 3 3 2 2 2 1 1 1 1 1 1 0 0 0 -0 -0 -1 -1 -1 -1 -1 -1 -2
8 8 9 8 8 7 7 6 6 6 6 6 6 6 5 5 5 4 4 4 3 3 3 2 2 2 1 1 1 1 1 0 0 0 0 -0 -0 -1 -1 -1 -1 -1 -2 -2
7 8 8 7 7 6 6 5 5 5 6 5 5 5 5 5 4 4 4 3 3 3 2 2 2 1 1 1 1 1 1 0 0 0 0 0 -0 -0 -1 -1 -1 -2 -2 -2
7 7 7 6 6 5 5 5 5 5 5 5 5 4 4 4 4 4 3 3 3 3 2 2 2 1 1 1 1 1 1 1 0 0 0 -0 -0 -0 -1 -1 -1 -2 -2 -2
6 6 6 5 5 4 4 4 4 4 4 4 4 3 3 3 3 3 3 3 3 2 2 2 2 1 1 1 1 1 1 1 0 0 0 -0 -0 -1 -1 -1 -1 -2 -2 -3
5 5 4 4 4 3 3 3 3 3 3 3 3 3 3 3 3 3 2 2 2 2 2 2 1 1 1 1 1 1 1 0 0 0 -0 -0 -1 -1 -1 -1 -2 -2 -2 -3
4 3 3 3 3 2 2 2 2 2 2 2 2 2 2 2 2 2 2 2 2 2 2 1 1 1 1 1 1 1 1 0 0 -0 -0 -0 -1 -1 -1 -2 -2 -2 -3 -3
3 2 2 2 2 1 1 1 1 1 1 1 1 2 2 2 2 2 2 1 1 1 1 1 1 1 1 1 1 1 1 0 0 -0 -0 -1 -1 -1 -2 -2 -2 -3 -3 -4
2 2 1 1 1 1 1 1 1 1 1 1 1 1 1 1 1 1 1 1 1 1 1 1 0 0 1 0 0 0 0 0 -0 -0 -1 -1 -1 -1 -2 -2 -2 -3 -3 -4
1 1 1 1 1 1 1 1 1 1 1 1 1 0 0 0 0 0 0 0 0 0 1 0 0 0 0 0 0 0 0 -0 -0 -1 -1 -1 -1 -2 -2 -2 -3 -3 -4 -4
0 0 0 0 0 0 1 1 0 0 0 0 -0 -0 -0 -0 -0 -0 -0 -0 -0 -0 -0 -0 -0 -0 -0 -0 -0 -0 -0 -1 -1 -1 -1 -1 -1 -2 -2 -3 -3 -3 -4 -4
-1 -0 -0 -0 0 0 0 0 0 -0 -0 -0 -1 -1 -1 -1 -1 -1 -1 -1 -1 -1 -1 -1 -1 -1 -1 -1 -1 -1 -1 -1 -1 -1 -1 -2 -2 -2 -2 -3 -3 -4 -4 -4
-1 -1 -1 -1 -0 -0 -1 -1 -1 -1 -1 -1 -1 -1 -1 -1 -1 -1 -1 -1 -1 -1 -1 -1 -1 -1 -1 -1 -1 -1 -1 -1 -1 -1 -2 -2 -2 -2 -3 -3 -3 -4 -4 -4
-1 -1 -1 -1 -1 -1 -1 -1 -1 -1 -1 -1 -1 -2 -2 -2 -2 -2 -2 -2 -2 -1 -1 -1 -1 -1 -1 -1 -2 -2 -2 -2 -2 -2 -2 -2 -2 -2 -3 -3 -4 -4 -4 -5
-1 -1 -1 -1 -1 -1 -1 -2 -2 -2 -2 -2 -2 -2 -2 -2 -2 -2 -2 -2 -2 -2 -2 -2 -2 -2 -2 -2 -2 -2 -2 -2 -2 -2 -2 -3 -3 -3 -3 -3 -4 -4 -4 -5
-1 -2 -2 -2 -2 -2 -2 -2 -2 -2 -2 -2 -3 -3 -3 -3 -3 -3 -2 -2 -2 -2 -2 -2 -2 -2 -2 -2 -3 -3 -3 -3 -3 -3 -3 -3 -3 -3 -3 -4 -4 -4 -5 -5
-2 -2 -2 -2 -3 -3 -3 -3 -3 -3 -3 -3 -3 -3 -3 -3 -3 -3 -3 -3 -3 -3 -3 -3 -3 -3 -3 -3 -3 -3 -3 -3 -3 -3 -3 -4 -4 -4 -4 -4 -4 -5 -5 -5
-2 -2 -3 -3 -3 -3 -3 -3 -3 -3 -4 -4 -3 -3 -3 -3 -3 -4 -4 -4 -4 -4 -4 -4 -4 -4 -4 -4 -4 -4 -4 -4 -4 -4 -4 -4 -4 -4 -4 -5 -5 -5 -5 -5
Wind_Speed
2 2 4 6 8 10 9 7 4 1 2 6 7 7 6 5 4 3 4 5 5 4 4 4 3 4 4 4 4 5 5 6 6 6 6 7 7 8 8 8 9 8 9 9
0 1 2 4 7 9 10 10 8 4 3 1 4 4 4 4 4 4 4 5 5 5 4 4 4 3 4 4 4 5 6 6 6 6 7 7 7 8 8 9 9 9 9 9
1 3 2 5 9 11 9 7 8 9 6 4 4 4 4 3 3 3 4 5 5 4 4 4 4 3 3 4 5 5 6 6 6 6 7 7 7 8 8 8 9 9 9 9
1 2 4 2 3 2 7 8 7 4 2 2 2 2 1 1 2 3 4 5 5 5 5 5 5 4 4 5 5 5 5 6 6 6 6 7 7 8 8 7 8 8 8 8
1 3 4 3 3 2 3 3 5 6 4 2 2 1 0 3 5 4 5 5 5 5 5 5 5 5 5 5 5 5 5 5 5 6 6 7 7 7 6 7 7 7 6 7
2 2 2 3 4 2 0 1 2 3 3 3 3 2 2 4 6 6 6 5 5 5 5 5 4 5 6 5 6 5 5 5 5 6 6 7 7 6 6 6 6 6 6 6
3 3 2 2 4 2 1 2 4 4 4 4 2 2 3 4 5 5 5 5 5 5 4 4 5 5 6 6 5 5 5 5 6 6 6 6 6 5 5 5 5 6 6 6
3 3 3 3 3 1 3 4 5 5 5 4 3 3 3 3 3 5 5 5 5 5 5 5 5 5 6 6 6 6 6 6 6 5 5 5 6 5 4 5 5 5 5 4
3 2 3 3 4 5 4 4 4 4 4 3 1 1 2 2 3 4 5 5 5 5 6 5 4 5 7 6 6 7 6 6 6 6 5 5 5 5 4 3 4 3 3 3
2 2 5 5 4 4 4 4 4 4 4 3 1 1 0 2 3 4 5 5 6 6 6 5 5 5 6 7 7 7 7 6 5 5 5 4 3 3 3 3 3 3 3 2
3 2 3 4 4 4 5 5 4 4 3 2 2 2 1 2 3 4 5 5 6 6 6 6 6 6 7 7 8 7 7 6 5 5 5 4 4 3 4 3 3 3 2 2
2 1 1 4 5 5 4 3 3 3 3 2 2 3 2 2 3 4 5 6 6 6 6 7 7 7 7 7 8 8 7 6 5 4 4 4 4 4 7 5 6 6 5 4
1 4 4 5 6 5 4 3 3 3 3 3 3 2 2 2 2 3 5 6 7 7 7 8 8 8 8 7 7 7 7 6 5 5 5 4 4 4 3 3 4 4 4 3
3 2 2 3 3 3 3 3 3 3 3 3 2 2 2 2 2 3 5 6 6 7 7 8 8 8 8 7 7 7 6 6 6 4 4 4 4 4 3 3 2 1 2 3
2 2 2 3 3 3 3 3 3 3 3 3 2 2 2 3 3 3 3 4 6 7 7 8 8 8 7 8 7 7 6 5 5 4 4 4 4 3 3 3 2 2 1 2
3 3 3 2 2 2 2 3 4 4 4 4 3 3 3 3 3 3 4 5 6 7 7 8 8 7 8 8 8 6 6 8 7 5 4 4 4 3 3 3 2 2 2 2
3 3 1 0 1 2 3 3 4 4 4 4 4 3 2 2 2 3 3 4 5 5 5 7 7 7 8 8 8 6 6 7 9 6 5 5 4 4 3 3 3 3 3 3
4 3 2 1 1 3 4 4 4 4 4 5 4 2 2 2 3 3 3 3 4 4 4 5 6 7 7 8 7 6 6 6 5 5 5 5 4 4 3 3 3 4 3 4
5 4 4 3 3 3 3 4 4 5 4 4 3 2 2 2 2 2 2 4 5 5 5 6 9 8 7 8 8 6 6 7 6 5 4 6 5 4 4 4 4 4 4 3
5 4 3 3 3 3 4 4 5 4 4 3 3 2 2 1 1 1 2 4 4 3 4 6 7 7 7 8 9 6 7 7 7 6 5 5 5 5 4 4 4 4 4 4
3 3 3 3 3 4 4 4 4 4 4 3 3 2 2 2 1 1 2 3 2 2 4 7 6 6 6 8 9 6 7 7 6 6 6 6 5 5 5 5 5 4 4 4
3 3 3 3 4 4 4 4 4 4 4 3 3 3 2 2 2 2 3 2 2 3 3 4 4 7 9 9 6 6 6 7 6 6 6 6 6 5 5 5 5 5 4 4
2 2 3 4 4 4 4 4 4 4 4 4 3 3 3 3 2 2 2 1 1 4 3 4 6 9 11 7 6 6 7 7 6 6 6 6 5 5 5 5 5 5 5 5
2 2 3 3 4 4 4 5 5 4 4 3 3 3 2 2 2 2 2 3 3 4 3 5 8 10 9 5 5 6 6 6 6 5 5 5 5 5 5 5 5 5 5 5
1 1 2 3 3 3 3 4 4 4 4 3 3 3 2 2 2 3 3 3 4 3 2 5 8 8 6 4 5 5 5 5 5 5 5 5 5 5 5 5 5 5 5 5
0 1 1 2 2 2 3 3 3 3 4 4 4 3 3 3 3 2 2 3 3 3 2 2 3 5 3 4 4 5 5 5 5 5 5 5 5 5 5 5 5 5 5 5
1 1 1 2 1 1 2 3 3 3 3 4 4 4 4 3 3 3 3 2 2 1 1 1 2 2 3 3 4 4 4 4 4 4 4 4 4 4 4 5 4 4 4 4
Wind_Direction
55 85 158 187 193 199 206 216 228 240 155 168 170 167 161 156 153 153 143 141 136 127 116 109 95 82 73 67 55 56 62 62 59 57 55 56 56 55 57 61 65 66 69 68
168 181 197 226 221 210 214 227 240 262 280 150 142 147 157 172 176 178 164 151 140 132 129 122 111 98 89 79 69 72 73 69 66 66 65 63 62 63 65 65 66 69 70 72
203 153 225 244 223 214 211 211 218 229 227 176 172 178 183 191 178 166 150 142 139 137 129 120 115 109 107 98 85 81 79 74 73 76 75 71 73 71 69 70 71 72 73 75
218 181 236 207 48 180 209 217 215 221 198 148 152 142 118 119 139 128 123 126 125 124 120 116 113 109 103 98 95 93 87 84 84 85 86 84 81 78 76 75 76 77 77 80
233 247 254 168 137 131 177 219 208 211 214 183 128 109 176 86 83 92 103 112 115 117 120 117 121 122 113 107 102 96 91 89 92 97 98 93 88 83 82 84 82 80 81 84
239 261 280 98 108 72 167 199 93 149 170 158 146 198 162 102 91 88 90 99 106 109 115 122 125 123 119 117 110 104 100 97 98 101 103 100 98 96 93 94 95 93 85 81
243 250 286 107 138 153 200 132 89 87 91 92 107 96 116 107 101 106 104 110 116 122 125 126 124 125 124 118 115 113 110 105 102 102 105 106 102 99 100 97 93 90 87 80
211 228 236 135 145 136 92 92 80 70 69 72 71 82 101 114 123 126 126 133 136 135 128 122 126 131 129 128 125 121 119 114 110 110 113 116 114 109 107 107 103 98 94 85
196 186 115 113 96 90 74 75 64 60 59 59 59 127 137 153 156 153 154 154 149 145 137 134 133 135 137 138 135 130 125 122 122 119 118 124 126 129 126 117 113 111 107 104
281 186 150 144 120 101 79 67 54 47 37 23 342 328 180 185 173 166 164 161 158 156 153 154 146 139 140 141 141 137 135 135 137 135 133 125 119 123 120 114 111 113 114 115
249 234 154 143 116 97 80 65 51 39 26 6 337 307 270 231 196 179 171 164 165 168 168 163 155 151 147 149 148 146 146 149 152 147 138 123 101 87 104 87 118 126 124 120
239 20 108 108 88 75 72 57 35 7 343 336 313 288 273 245 205 177 172 170 172 176 173 164 160 159 159 159 158 158 158 159 155 149 143 137 128 99 85 105 96 97 105 109
82 50 61 94 88 69 53 33 9 340 317 308 301 288 275 257 207 180 179 180 182 181 173 163 163 165 165 164 166 166 163 160 159 159 155 154 147 142 136 112 115 121 129 129
73 77 121 104 90 63 38 9 346 324 315 306 302 291 277 257 217 202 196 188 178 171 167 165 168 171 167 164 163 161 157 162 163 160 155 153 153 154 153 157 168 193 188 188
82 64 88 79 73 53 25 355 332 318 316 313 312 290 266 244 227 218 194 170 165 169 171 171 176 176 166 164 164 162 160 160 157 150 147 148 148 149 155 165 176 186 192 220
115 97 91 86 72 28 359 337 319 314 317 312 306 290 272 253 230 205 180 169 174 185 183 180 184 177 168 166 163 162 164 164 158 153 153 154 155 161 170 178 188 201 216 221
138 154 151 190 312 331 327 321 315 314 316 310 301 292 275 247 217 195 185 182 186 189 184 183 181 170 170 169 166 166 162 167 166 161 167 170 172 179 183 185 198 213 226 231
86 90 82 46 339 323 322 326 328 322 311 305 304 295 265 236 226 212 191 175 169 178 186 179 169 167 170 170 168 165 165 168 171 172 170 173 177 180 183 193 206 220 236 247
71 63 49 31 8 340 330 332 328 322 321 322 312 292 276 265 244 208 182 183 192 205 199 178 174 173 175 177 170 165 166 169 171 171 172 185 187 185 191 201 214 223 231 237
70 57 41 22 10 360 347 340 335 335 338 336 327 315 308 303 249 196 202 219 222 213 181 177 177 178 178 179 175 171 173 175 177 178 180 184 190 196 201 208 216 224 232 238
63 49 33 16 4 1 358 350 346 342 343 347 337 320 312 308 278 216 219 243 235 182 180 185 182 180 178 181 181 177 178 180 183 184 187 193 197 201 207 214 221 228 232 239
49 37 18 3 355 354 357 357 356 349 347 345 342 336 327 313 295 271 249 242 219 202 194 190 185 187 186 182 180 181 183 186 188 187 191 195 198 204 211 215 223 231 234 238
51 33 16 4 353 341 348 1 359 348 338 332 328 322 313 300 285 275 282 275 225 223 212 201 200 196 191 183 180 183 186 190 192 193 196 198 201 204 210 217 224 229 234 241
48 33 12 357 351 352 352 351 346 336 325 320 320 317 318 315 305 291 301 282 263 249 230 212 206 201 192 182 181 186 189 193 194 194 194 197 201 205 210 216 225 230 235 244
46 14 358 353 352 347 339 337 338 342 344 343 340 340 337 324 306 306 302 282 271 261 245 223 215 204 189 178 184 187 188 192 193 191 194 199 204 210 215 219 223 229 237 244
356 324 322 318 315 323 331 334 333 334 338 338 337 339 339 332 319 308 301 290 275 261 248 224 207 196 181 179 183 187 188 195 203 201 197 200 207 212 217 221 224 229 239 246
261 273 285 298 312 334 337 331 325 327 331 328 325 326 327 325 319 312 306 300 288 266 244 217 188 178 181 181 182 183 184 186 190 193 194 201 207 213 217 220 226 232 241 250
Height
1441 1440 1442 1445 1447 1450 1453 1453 1455 1448 1447 1448 1449 1451 1453 1455 1456 1458 1459 1460 1461 1461 1461 1461 1461 1461 1461 1460 1460 1460 1460 1459 1459 1458 1458 1458 1457 1457 1457 1457 1456 1456 1456 1456
1443 1441 1442 1444 1444 1445 1448 1449 1448 1448 1448 1445 1447 1449 1451 1453 1455 1456 1457 1458 1459 1459 1459 1459 1459 1459 1459 1459 1459 1458 1458 1458 1457 1457 1457 1457 1457 1457 1457 1456 1456 1456 1456 1456
1445 1442 1444 1448 1440 1441 1442 1442 1445 1448 1447 1445 1447 1448 1450 1452 1453 1454 1455 1456 1456 1457 1457 1457 1457 1457 1457 1457 1457 1457 1457 1457 1457 1457 1457 1457 1457 1457 1457 1456 1456 1456 1456 1456
1446 1447 1451 1441 1434 1434 1437 1439 1440 1441 1442 1443 1445 1447 1449 1450 1451 1452 1453 1453 1454 1454 1454 1455 1455 1455 1455 1456 1456 1456 1456 1456 1457 1457 1457 1457 1457 1457 1457 1457 1457 1457 1457 1457
1447 1446 1440 1437 1435 1435 1437 1438 1437 1439 1441 1443 1444 1446 1448 1448 1449 1450 1451 1451 1452 1452 1452 1452 1453 1453 1454 1454 1455 1455 1456 1456 1456 1457 1457 1457 1457 1457 1457 1458 1458 1458 1458 1458
1445 1447 1443 1439 1436 1435 1438 1440 1437 1437 1440 1442 1444 1448 1448 1447 1448 1448 1449 1449 1449 1450 1450 1450 1451 1452 1453 1453 1454 1455 1455 1456 1456 1457 1457 1458 1458 1458 1458 1458 1459 1459 1459 1460
1446 1446 1440 1436 1436 1437 1443 1442 1439 1439 1440 1442 1443 1446 1447 1446 1446 1447 1447 1447 1447 1448 1448 1449 1450 1451 1451 1452 1453 1454 1455 1456 1457 1457 1458 1458 1458 1459 1459 1459 1460 1460 1461 1461
1443 1446 1446 1437 1436 1439 1441 1439 1440 1440 1441 1442 1443 1444 1444 1445 1445 1445 1445 1445 1445 1446 1447 1448 1448 1449 1450 1451 1453 1454 1455 1456 1457 1458 1458 1459 1459 1460 1460 1461 1461 1461 1461 1461
1438 1441 1437 1436 1437 1438 1439 1440 1441 1441 1442 1442 1442 1443 1443 1443 1443 1443 1443 1443 1444 1445 1445 1446 1447 1448 1449 1451 1452 1453 1455 1456 1457 1458 1458 1459 1460 1460 1461 1461 1461 1462 1462 1462
1435 1434 1434 1436 1437 1438 1439 1440 1440 1441 1441 1441 1441 1441 1441 1441 1441 1441 1441 1441 1442 1443 1444 1445 1446 1447 1448 1450 1451 1453 1454 1455 1457 1458 1458 1459 1460 1461 1461 1461 1462 1462 1462 1462
1434 1433 1433 1435 1436 1437 1438 1439 1439 1440 1440 1440 1440 1439 1439 1439 1439 1439 1439 1439 1440 1441 1442 1443 1444 1446 1447 1449 1451 1452 1454 1455 1456 1458 1459 1459 1460 1461 1461 1461 1462 1462 1461 1461
1434 1433 1433 1435 1435 1437 1437 1438 1438 1438 1438 1438 1437 1437 1437 1436 1436 1436 1436 1437 1438 1439 1440 1441 1442 1444 1446 1448 1449 1451 1453 1454 1456 1457 1458 1459 1460 1460 1461 1461 1461 1461 1461 1460
1432 1432 1433 1434 1435 1436 1436 1436 1436 1436 1435 1435 1434 1434 1434 1433 1433 1433 1434 1434 1435 1436 1437 1439 1440 1442 1444 1446 1448 1450 1451 1453 1455 1456 1457 1458 1459 1459 1460 1460 1460 1460 1459 1458
1430 1432 1433 1434 1434 1434 1434 1434 1434 1433 1433 1432 1432 1431 1430 1430 1430 1430 1431 1431 1432 1433 1435 1436 1438 1440 1442 1444 1446 1448 1450 1452 1454 1455 1456 1457 1457 1458 1458 1458 1458 1457 1457 1456
1429 1430 1431 1432 1432 1432 1432 1432 1431 1431 1430 1429 1429 1428 1427 1427 1427 1427 1428 1428 1429 1430 1432 1433 1435 1437 1439 1442 1444 1446 1448 1450 1452 1453 1454 1455 1456 1456 1456 1456 1456 1455 1455 1454
1428 1428 1429 1430 1430 1430 1430 1429 1429 1428 1427 1426 1425 1425 1424 1424 1424 1424 1424 1425 1426 1427 1428 1430 1432 1434 1437 1439 1441 1443 1446 1448 1450 1451 1452 1453 1453 1454 1454 1453 1453 1453 1452 1451
1426 1426 1427 1428 1428 1428 1428 1427 1426 1425 1424 1423 1422 1421 1421 1420 1420 1421 1421 1422 1423 1424 1425 1427 1429 1431 1433 1435 1438 1440 1443 1445 1447 1448 1449 1450 1451 1451 1451 1451 1450 1450 1449 1448
1424 1425 1425 1426 1425 1425 1425 1424 1424 1422 1421 1420 1419 1418 1417 1417 1417 1417 1418 1419 1419 1420 1422 1423 1425 1427 1430 1432 1434 1437 1439 1441 1443 1445 1446 1447 1448 1448 1448 1448 1447 1446 1445 1445
1422 1423 1423 1424 1424 1423 1423 1422 1421 1419 1418 1417 1416 1415 1415 1414 1414 1415 1415 1415 1416 1417 1418 1420 1421 1423 1426 1428 1430 1433 1435 1437 1439 1441 1442 1443 1444 1444 1444 1444 1443 1443 1442 1441
1421 1422 1422 1422 1422 1421 1420 1419 1418 1417 1415 1414 1413 1412 1412 1412 1412 1412 1412 1412 1413 1414 1415 1416 1418 1419 1422 1424 1426 1429 1431 1433 1435 1437 1438 1439 1440 1440 1440 1440 1439 1439 1438 1437
1421 1421 1421 1421 1420 1419 1418 1417 1416 1415 1413 1412 1411 1410 1409 1409 1409 1409 1409 1409 1410 1411 1412 1413 1414 1415 1418 1420 1422 1424 1426 1429 1431 1432 1433 1434 1435 1435 1435 1435 1435 1434 1433 1432
1420 1420 1420 1420 1419 1418 1417 1415 1414 1413 1411 1410 1409 1408 1407 1407 1407 1406 1407 1407 1407 1408 1408 1409 1410 1412 1414 1416 1418 1420 1422 1424 1426 1428 1429 1430 1430 1431 1431 1431 1430 1430 1429 1428
1420 1420 1419 1418 1417 1416 1415 1414 1413 1411 1410 1408 1407 1406 1405 1405 1404 1404 1404 1404 1404 1405 1405 1406 1407 1409 1410 1412 1414 1416 1418 1420 1421 1423 1424 1425 1426 1426 1426 1426 1426 1425 1424 1423
1419 1418 1418 1417 1416 1415 1414 1412 1411 1410 1409 1407 1406 1405 1404 1403 1402 1402 1402 1402 1402 1402 1402 1403 1404 1405 1407 1408 1410 1412 1414 1415 1417 1418 1419 1420 1421 1422 1422 1421 1421 1420 1420 1419
1418 1417 1416 1415 1414 1413 1412 1410 1409 1408 1407 1406 1405 1403 1402 1401 1401 1400 1399 1399 1399 1399 1399 1400 1401 1402 1403 1405 1407 1408 1410 1411 1413 1414 1415 1416 1416 1417 1417 1417 1416 1416 1415 1414
1416 1416 1415 1414 1413 1411 1410 1409 1407 1406 1405 1404 1403 1402 1401 1400 1399 1398 1397 1396 1396 1396 1397 1397 1398 1399 1400 1402 1403 1405 1406 1408 1409 1410 1411 1411 1412 1412 1412 1412 1412 1411 1410 1409
1415 1414 1413 1412 1411 1410 1408 1407 1406 1404 1403 1401 1400 1399 1398 1397 1396 1395 1395 1394 1394 1394 1394 1394 1395 1396 1397 1398 1400 1401 1403 1404 1405 1406 1407 1407 1408 1408 1408 1408 1408 1407 1406 1405